星链-4066 (STARLINK-4066 )

导读 | 豆包AI

STARLINK-4066卫星由美国发射,属于SpaceX星链(Starlink)项目,于北京时间2022年7月17日发射升空。作为星链低轨互联网星座中的一员,它主要用于为全球提供高速卫星互联网接入服务,填补地面网络覆盖的盲区,该卫星运行在近地轨道,助力星链星座构建全球卫星通信网络。

Basic Information
目录编号:
53148
目录名称:
STARLINK-4066
国际标识:
2022-083S
轨道中心:
EARTH
卫星名称:
星链-4066
卫星全名:
星链-4066 (STARLINK-4066 )
卫星状态:
已陨落 最后检测时间 2024-06-24
发射日期:
2022-07-17 UTC
国别 :
美国 (US)
星等 :
--
Orbit Information
数据来源 国际轨道数据
星历时间: 2024-06-25T03:14:54+0800
轨道信息已过期673天
半长轴: 6511.353km
偏心率: 0.00074
轨道倾角: 53.196°
近地点辐角 186.527°
升交点赤经 345.065°
平近点角 219.764°
近地点: 128.399km
远地点: 138.037km
周期: 87.150分钟
每日圈数: 16.52327
Detailed Information
固有亮度:
5
最大亮度:
2.5
卫星平台:
Starlink v1.5
覆盖范围:
全球
运营商:
太空探索技术公司
运营商所在国:
美国
制造商(研发单位):
太空探索技术公司
制造商所在国:
美国
使用方式:
暂无
Satellite Introduction
星链(Starlink)计划是由太空探索技术公司(SpaceX)提出的一个巨型低轨卫星互联网星座项目,计划在2019年至2024年间在太空搭建由约1.2万颗卫星组成的“星链”网络,其中1584颗将部署在地球上空550千米处的近地轨道,并从2020年开始工作。该卫星已陨落。